FW1648 Weather Reports


time (UTC)temp
C
wind
direction
speed
KPH
gust
KPH
rain 1hr
cm
rain 24hr
cm
rain mn
cm
humidity
%
barometer
mb
20260506215306 12 346 1.6 3.2 0.00 0.00 0.00 48 1012.0
20260506214808 12 293 3.2 4.8 0.00 0.00 0.00 46 1012.0
20260506214305 12 296 3.2 9.7 0.00 0.00 0.00 46 1011.9
20260506213804 12 11 3.2 9.7 0.00 0.00 0.00 46 1011.9
20260506213304 12 294 3.2 4.8 0.00 0.00 0.00 48 1011.8
20260506212804 12 280 3.2 4.8 0.00 0.00 0.00 47 1011.8
20260506212306 12 308 1.6 4.8 0.00 0.00 0.00 46 1011.8
20260506211804 12 314 3.2 4.8 0.00 0.00 0.00 47 1011.8
20260506211304 12 326 3.2 12.9 0.00 0.00 0.00 47 1011.8
20260506210804 12 303 4.8 14.5 0.00 0.00 0.00 48 1011.8
20260506210304 12 265 3.2 4.8 0.00 0.00 0.00 49 1011.8
20260506205804 12 292 3.2 8.0 0.00 0.00 0.00 46 1011.8
20260506205306 12 307 1.6 8.0 0.00 0.00 0.00 48 1011.9
20260506204804 12 310 3.2 11.3 0.00 0.00 0.00 46 1011.8
20260506204304 12 12 1.6 4.8 0.00 0.00 0.00 47 1011.8
20260506203805 12 297 4.8 8.0 0.00 0.00 0.00 47 1011.9
20260506202805 12 330 3.2 9.7 0.00 0.00 0.00 46 1011.9
20260506202306 13 298 3.2 8.0 0.00 0.00 0.00 45 1011.8
20260506201304 13 292 1.6 12.9 0.00 0.00 0.00 48 1011.8
20260506200804 13 332 3.2 11.3 0.00 0.00 0.00 48 1012.0
20260506200304 13 270 4.8 12.9 0.00 0.00 0.00 45 1012.0
20260506195804 13 245 3.2 22.5 0.00 0.00 0.00 46 1012.2
20260506195306 13 312 4.8 11.3 0.00 0.00 0.00 46 1012.2
20260506194804 13 261 3.2 4.8 0.00 0.00 0.00 47 1012.1
20260506194304 13 295 3.2 8.0 0.00 0.00 0.00 47 1012.2
20260506192305 12 306 4.8 8.0 0.00 0.00 0.00 50 1012.3
20260506191804 12 297 3.2 4.8 0.00 0.00 0.00 50 1012.4
20260506191305 12 302 3.2 4.8 0.00 0.00 0.00 51 1012.4
20260506185804 12 306 1.6 4.8 0.00 0.00 0.00 51 1012.5
20260506185307 12 246 3.2 4.8 0.00 0.00 0.00 51 1012.4
20260506184305 12 222 1.6 8.0 0.00 0.00 0.00 49 1012.4
20260506183804 12 265 3.2 8.0 0.00 0.00 0.00 46 1012.3
20260506183305 12 310 1.6 9.7 0.00 0.00 0.00 53 1012.2
20260506182306 12 3 3.2 8.0 0.00 0.00 0.00 54 1012.2
20260506181804 12 356 1.6 9.7 0.00 0.00 0.00 56 1012.2
20260506181305 11 315 3.2 4.8 0.00 0.00 0.00 52 1012.2
20260506180804 11 326 3.2 4.8 0.00 0.00 0.00 54 1012.2
20260506175804 11 276 3.2 8.0 0.00 0.00 0.00 51 1012.3
20260506175306 11 300 3.2 9.7 0.00 0.00 0.00 54 1012.4
20260506174304 11 316 3.2 9.7 0.00 0.00 0.00 54 1012.4
20260506173804 11 304 1.6 4.8 0.00 0.00 0.00 56 1012.4
20260506173304 11 301 1.6 4.8 0.00 0.00 0.00 56 1012.6
20260506172306 10 308 1.6 4.8 0.00 0.00 0.00 57 1012.8
20260506171304 10 308 1.6 4.8 0.00 0.00 0.00 55 1012.8
20260506170804 10 330 1.6 4.8 0.00 0.00 0.00 56 1012.8
20260506164804 10 328 1.6 4.8 0.00 0.03 0.00 56 1012.6
20260506164304 10 0 1.6 4.8 0.00 0.03 0.00 56 1012.7
20260506163804 10 290 1.6 4.8 0.00 0.05 0.00 55 1012.6
20260506163304 10 358 3.2 8.0 0.00 0.05 0.00 55 1012.5
20260506162804 10 258 1.6 4.8 0.00 0.05 0.00 56 1012.5
20260506162307 10 310 3.2 8.0 0.00 0.05 0.00 52 1012.5
20260506161804 10 292 3.2 8.0 0.00 0.05 0.00 52 1012.4
20260506161304 10 303 4.8 9.7 0.00 0.05 0.00 50 1012.3
20260506160805 11 312 3.2 11.3 0.00 0.05 0.00 48 1012.4
20260506155804 11 311 3.2 9.7 0.00 0.05 0.00 52 1012.3
20260506154804 11 269 8.0 16.1 0.00 0.05 0.00 51 1012.1
20260506154304 11 297 3.2 9.7 0.00 0.05 0.00 52 1012.2
20260506153804 11 345 3.2 4.8 0.00 0.05 0.00 53 1012.1
20260506153304 11 301 4.8 12.9 0.00 0.05 0.00 50 1012.1
20260506152306 11 297 4.8 12.9 0.00 0.05 0.00 50 1012.1
20260506151805 11 292 3.2 9.7 0.00 0.05 0.00 51 1012.1
20260506150804 11 309 3.2 11.3 0.00 0.05 0.00 52 1011.8
20260506150305 11 17 4.8 11.3 0.00 0.05 0.00 53 1011.9
20260506145804 11 1 3.2 8.0 0.00 0.05 0.00 52 1011.8
20260506145305 11 290 3.2 4.8 0.00 0.05 0.00 54 1011.7
20260506144804 11 308 3.2 11.3 0.00 0.05 0.00 52 1011.8
20260506144304 11 298 3.2 4.8 0.00 0.05 0.00 53 1011.7
20260506143804 11 296 3.2 8.0 0.00 0.05 0.00 52 1011.6
20260506143304 11 292 1.6 8.0 0.00 0.05 0.00 55 1011.5
20260506142804 11 304 1.6 14.5 0.00 0.05 0.00 53 1011.6
20260506142306 10 253 3.2 11.3 0.00 0.05 0.00 53 1011.5
20260506141804 10 293 4.8 12.9 0.00 0.05 0.00 52 1011.4
20260506140805 10 298 6.4 14.5 0.00 0.05 0.00 51 1011.5
20260506140304 10 323 3.2 4.8 0.00 0.05 0.00 55 1011.4
20260506135804 10 318 1.6 4.8 0.00 0.05 0.00 55 1011.4
20260506135306 10 262 3.2 4.8 0.00 0.05 0.00 57 1011.3
20260506134804 10 300 1.6 4.8 0.00 0.05 0.00 56 1011.2
20260506133804 10 331 4.8 11.3 0.00 0.05 0.00 54 1011.2
20260506133304 10 307 3.2 8.0 0.00 0.05 0.00 55 1011.3
20260506132804 10 314 1.6 4.8 0.00 0.05 0.00 54 1011.3
20260506132307 10 325 3.2 4.8 0.00 0.05 0.00 55 1011.2
20260506131804 9 306 3.2 4.8 0.00 0.05 0.00 58 1011.1
20260506131304 9 303 3.2 4.8 0.00 0.05 0.00 59 1010.9
20260506130304 9 304 1.6 4.8 0.00 0.05 0.00 61 1011.0
20260506125804 8 309 0.0 4.8 0.00 0.05 0.00 61 1010.8
20260506125305 8 296 1.6 4.8 0.00 0.05 0.00 63 1010.9
20260506124804 8 296 1.6 4.8 0.00 0.05 0.00 63 1010.7
20260506124305 8 301 3.2 8.0 0.00 0.05 0.00 64 1010.7
20260506123804 8 274 1.6 4.8 0.00 0.05 0.00 64 1010.7
20260506123304 7 303 3.2 4.8 0.00 0.05 0.00 65 1010.7
20260506122804 7 298 1.6 3.2 0.00 0.05 0.00 66 1010.6
20260506122306 7 308 1.6 4.8 0.00 0.05 0.00 67 1010.4
20260506121304 7 355 0.0 0.0 0.00 0.05 0.00 70 1010.2
20260506120304 6 355 1.6 3.2 0.00 0.05 0.00 70 1010.0
20260506115804 6 0 0.0 0.0 0.00 0.05 0.00 71 1010.1
20260506115307 6 355 0.0 1.6 0.00 0.05 0.00 70 1010.1
20260506114304 6 331 1.6 3.2 0.00 0.05 0.00 71 1010.0
20260506113804 6 306 0.0 3.2 0.00 0.05 0.00 71 1010.0
20260506113305 6 306 0.0 1.6 0.00 0.05 0.00 71 1009.9
20260506112306 6 306 0.0 3.2 0.00 0.05 0.00 71 1009.9
20260506111804 6 306 0.0 1.6 0.00 0.05 0.00 71 1009.8
20260506111304 6 306 0.0 1.6 0.00 0.05 0.00 71 1009.7
20260506110804 6 306 0.0 3.2 0.00 0.05 0.00 70 1009.6
20260506110304 6 306 0.0 3.2 0.00 0.05 0.00 69 1009.5
20260506105804 6 306 0.0 0.0 0.00 0.05 0.00 69 1009.4
20260506105305 6 306 0.0 0.0 0.00 0.05 0.00 69 1009.2
20260506104803 6 306 0.0 0.0 0.00 0.05 0.00 69 1009.1
20260506104304 7 306 0.0 0.0 0.00 0.05 0.00 69 1009.2
20260506103804 7 306 0.0 0.0 0.00 0.05 0.00 69 1009.1
20260506103304 7 306 0.0 0.0 0.00 0.05 0.00 67 1009.1
20260506102804 7 306 0.0 1.6 0.00 0.05 0.00 67 1009.0
20260506102305 7 306 0.0 1.6 0.00 0.05 0.00 67 1008.9
20260506101804 7 306 0.0 1.6 0.00 0.05 0.00 67 1008.9
20260506101304 7 306 0.0 3.2 0.00 0.05 0.00 67 1008.9
20260506100804 7 306 1.6 4.8 0.00 0.05 0.00 67 1008.9
20260506100304 7 306 0.0 3.2 0.00 0.05 0.00 67 1008.8
20260506095804 7 306 1.6 4.8 0.00 0.05 0.00 67 1008.8
20260506094804 7 323 0.0 4.8 0.00 0.05 0.00 67 1008.7
20260506094304 7 323 0.0 3.2 0.00 0.05 0.00 67 1008.7
20260506093804 7 323 1.6 3.2 0.00 0.05 0.00 67 1008.7
20260506093304 7 347 0.0 0.0 0.00 0.05 0.00 68 1008.7
20260506092804 7 347 0.0 0.0 0.00 0.05 0.00 67 1008.5
20260506092306 7 347 0.0 0.0 0.00 0.05 0.00 67 1008.5
20260506091804 7 347 0.0 4.8 0.00 0.05 0.00 67 1008.3
20260506091304 7 6 0.0 4.8 0.00 0.05 0.00 68 1008.2
20260506090804 7 0 0.0 1.6 0.00 0.05 0.00 67 1008.4
20260506090304 7 43 0.0 4.8 0.00 0.05 0.00 68 1008.4
20260506085804 7 306 0.0 4.8 0.00 0.05 0.00 67 1008.4
20260506085306 7 306 0.0 3.2 0.00 0.05 0.00 67 1008.2
20260506084804 7 306 1.6 8.0 0.00 0.05 0.00 67 1008.2
20260506083804 7 241 0.0 0.0 0.00 0.05 0.00 67 1008.2
20260506083304 7 241 0.0 0.0 0.00 0.05 0.00 68 1008.1
20260506082804 7 241 0.0 1.6 0.00 0.05 0.00 68 1008.2
20260506081304 7 241 1.6 4.8 0.00 0.05 0.00 67 1008.1
20260506080305 7 241 0.0 3.2 0.00 0.05 0.00 67 1008.1
20260506073304 7 241 0.0 1.6 0.00 0.05 0.00 68 1008.1
20260506072804 7 241 0.0 1.6 0.00 0.05 0.00 71 1008.2
20260506072306 7 241 0.0 3.2 0.00 0.05 0.00 70 1008.3
20260506071804 7 241 0.0 1.6 0.00 0.05 0.00 70 1008.2
20260506071303 7 241 0.0 4.8 0.00 0.05 0.00 70 1008.1
20260506070804 7 241 0.0 0.0 0.00 0.05 0.00 71 1008.1
20260506070304 7 241 0.0 0.0 0.00 0.05 0.00 73 1008.0
20260506062306 7 241 0.0 0.0 0.00 0.05 0.00 73 1008.5
20260506061804 7 241 0.0 1.6 0.00 0.05 0.00 72 1008.5
20260506061305 7 241 0.0 0.0 0.00 0.05 0.00 74 1008.4
20260506060804 7 241 0.0 1.6 0.00 0.05 0.00 73 1008.5
20260506060304 7 241 0.0 1.6 0.00 0.05 0.00 73 1008.5
20260506051304 7 241 0.0 0.0 0.00 0.08 0.00 77 1008.3
20260506050804 8 241 0.0 0.0 0.00 0.10 0.00 78 1008.4
20260506050305 8 241 0.0 0.0 0.00 0.13 0.00 78 1008.3
20260506044804 8 241 0.0 0.0 0.00 0.18 0.00 78 1008.5
20260506044304 8 241 0.0 0.0 0.00 0.18 0.00 78 1008.4
20260506043304 8 241 0.0 0.0 0.00 0.18 0.00 77 1008.3
20260506042305 8 241 0.0 0.0 0.00 0.23 0.00 74 1008.3
20260506041804 8 241 0.0 0.0 0.00 0.30 0.00 72 1008.3
20260506041304 8 241 0.0 0.0 0.00 0.36 0.00 73 1008.3
20260506040827 8 241 0.0 0.0 0.00 0.43 0.00 74 1008.4
20260506035803 8 241 0.0 0.0 0.00 0.46 0.46 76 1008.3
20260506035306 8 241 0.0 0.0 0.00 0.46 0.46 75 1008.2
20260506034804 8 241 0.0 0.0 0.00 0.46 0.46 72 1008.1
20260506034304 8 241 0.0 0.0 0.00 0.46 0.46 73 1008.1
20260506033804 8 241 0.0 0.0 0.00 0.46 0.46 73 1008.0
20260506033304 8 241 0.0 0.0 0.00 0.46 0.46 73 1008.0
20260506032804 8 241 0.0 0.0 0.00 0.46 0.46 72 1007.8
20260506032306 8 241 0.0 0.0 0.00 0.46 0.46 73 1007.8
20260506031804 8 241 0.0 0.0 0.00 0.46 0.46 72 1007.9
20260506031305 8 241 0.0 0.0 0.00 0.46 0.46 72 1008.0
20260506030804 8 241 0.0 0.0 0.00 0.46 0.46 72 1008.1
20260506030304 8 241 0.0 0.0 0.00 0.46 0.46 73 1008.2
20260506025305 8 241 0.0 0.0 0.00 0.46 0.46 72 1008.1
20260506024304 8 241 0.0 0.0 0.00 0.46 0.46 72 1008.1
20260506023304 8 241 0.0 0.0 0.00 0.46 0.46 69 1008.1
20260506022804 8 241 0.0 0.0 0.00 0.46 0.46 70 1008.2
20260506022305 8 241 0.0 0.0 0.00 0.46 0.46 68 1008.1
20260506021804 8 241 0.0 0.0 0.00 0.46 0.46 69 1008.1
20260506021305 8 241 0.0 0.0 0.00 0.46 0.46 68 1008.0
20260506020803 8 241 0.0 0.0 0.00 0.46 0.46 67 1008.0
20260506020304 9 241 0.0 0.0 0.00 0.46 0.46 69 1008.1
20260506015804 9 241 0.0 0.0 0.00 0.46 0.46 65 1008.0
20260506015306 9 241 0.0 0.0 0.00 0.46 0.46 66 1007.9
20260506014806 9 241 0.0 0.0 0.00 0.46 0.46 64 1007.9
20260506013806 9 241 0.0 0.0 0.00 0.46 0.46 65 1007.7
20260506013305 9 241 0.0 1.6 0.00 0.46 0.46 62 1007.7
20260506012806 9 241 0.0 0.0 0.00 0.46 0.46 61 1007.6
20260506012308 9 241 0.0 0.0 0.00 0.46 0.46 64 1007.5
20260506011806 10 241 0.0 0.0 0.00 0.46 0.46 63 1007.5
20260506011305 10 241 0.0 0.0 0.00 0.46 0.46 61 1007.4
20260506010806 10 241 0.0 0.0 0.00 0.46 0.46 61 1007.2
20260506010305 10 241 0.0 0.0 0.00 0.46 0.46 60 1007.3
20260506005306 10 241 0.0 0.0 0.00 0.46 0.46 57 1007.4
20260506004805 10 241 0.0 4.8 0.00 0.46 0.46 58 1007.4
20260506004305 10 310 1.6 4.8 0.00 0.46 0.46 56 1007.4
20260506003805 10 310 1.6 9.7 0.00 0.46 0.46 57 1007.4
20260506003305 10 318 1.6 3.2 0.00 0.46 0.46 59 1007.5
20260506002806 10 309 0.0 4.8 0.00 0.46 0.46 59 1007.5
20260506002306 10 314 1.6 4.8 0.00 0.46 0.46 58 1007.6
20260506001805 10 258 0.0 3.2 0.00 0.46 0.46 60 1007.6
20260506001306 10 242 0.0 3.2 0.00 0.46 0.46 57 1007.4
20260506000806 10 242 1.6 4.8 0.00 0.46 0.46 58 1007.5
20260506000305 11 259 1.6 4.8 0.00 0.46 0.46 58 1007.4
20260505234806 11 292 0.0 3.2 0.00 0.46 0.46 59 1007.3
20260505234305 11 306 1.6 4.8 0.00 0.46 0.46 59 1007.2
20260505233805 11 225 1.6 4.8 0.00 0.48 0.46 59 1007.0
20260505233306 11 312 1.6 3.2 0.00 0.48 0.46 60 1006.9
20260505232306 11 317 0.0 1.6 0.00 0.56 0.46 61 1006.8
20260505231805 11 317 0.0 1.6 0.00 0.56 0.46 60 1006.7
20260505231306 11 317 0.0 3.2 0.00 0.56 0.46 59 1006.7
20260505230805 11 334 0.0 4.8 0.00 0.56 0.46 59 1006.8
20260505230306 11 340 1.6 3.2 0.00 0.56 0.46 58 1006.8
20260505225805 11 296 1.6 3.2 0.00 0.58 0.46 59 1006.8
20260505225306 11 341 0.0 3.2 0.00 0.71 0.46 59 1006.8
20260505224805 11 333 1.6 3.2 0.00 0.81 0.46 61 1006.9
20260505224305 11 325 1.6 3.2 0.00 0.81 0.46 62 1006.8
20260505223805 11 323 1.6 4.8 0.00 0.81 0.46 61 1006.9
20260505223305 11 309 1.6 8.0 0.00 0.81 0.46 64 1006.8
20260505222805 12 350 1.6 8.0 0.00 0.81 0.46 64 1006.8
20260505222306 12 258 3.2 4.8 0.00 0.81 0.46 63 1006.9
20260505221306 12 281 1.6 4.8 0.00 0.81 0.46 64 1006.9
20260505220805 12 304 3.2 4.8 0.00 0.81 0.46 64 1006.7
20260505220305 12 241 0.0 4.8 0.00 0.81 0.46 64 1006.7
20260505215805 12 296 1.6 8.0 0.00 0.81 0.46 64 1006.7